Location: Martz Observatory
(42.0083°N, 79.0667°W)
Time: 11:50:26
(UTC-04:00)

Meteor 1-23 Rocket - Visible Passes

Search period start: 19 September 2014 00:00
Search period end: 29 September 2014 00:00
Orbit: 838 x 888 km, 81.3° (Epoch: 19 September)

Date Brightness Start Highest point End Pass type
(mag) Time Alt. Az. Time Alt. Az. Time Alt. Az.
19 Sep 4.9 05:09:56 10° S 05:15:33 58° E 05:21:15 10° NNE visible
20 Sep 4.9 05:01:42 10° S 05:07:19 57° E 05:13:01 10° NNE visible
21 Sep 4.9 04:53:28 10° S 04:59:05 57° E 05:04:46 10° NNE visible
22 Sep 4.9 04:46:11 15° SSE 04:50:51 56° E 04:56:32 10° NNE visible
22 Sep 5.5 06:30:08 10° WSW 06:34:26 21° WNW 06:38:47 10° NNW visible
23 Sep 4.9 04:39:05 23° SSE 04:42:37 56° E 04:48:18 10° NNE visible
23 Sep 5.5 06:21:52 10° WSW 06:26:12 21° WNW 06:30:34 10° NNW visible
24 Sep 4.9 04:31:53 32° SSE 04:34:23 55° E 04:40:03 10° NNE visible
24 Sep 5.5 06:14:13 12° WSW 06:17:57 22° WNW 06:22:21 10° NNW visible
25 Sep 4.9 04:24:34 42° SE 04:26:09 54° E 04:31:49 10° NNE visible
25 Sep 5.5 06:06:54 16° WSW 06:09:43 22° WNW 06:14:08 10° NNW visible
26 Sep 4.8 04:17:09 50° ESE 04:17:55 54° E 04:23:35 10° NNE visible
26 Sep 5.5 05:59:29 19° W 06:01:28 22° WNW 06:05:54 10° NNW visible
27 Sep 4.8 04:09:41 54° E 04:09:41 54° E 04:15:20 10° NNE visible
27 Sep 5.4 05:52:00 21° W 05:53:13 22° WNW 05:57:41 10° NNW visible
28 Sep 5.0 04:02:09 50° ENE 04:02:09 50° ENE 04:07:06 10° NNE visible
28 Sep 5.4 05:44:28 22° WNW 05:44:59 22° WNW 05:49:28 10° NNW visible
